Find Starlink 1266

NORAD ID: 45383 Int'l Des: 2020-019 Owner: SPXS Country: US Constellation: starlink operational
LEOCIRCULAR

Current View

Loading 3D Globe...

About Starlink 1266

Description loading...

Upcoming Passes

Passes for default location (London). Set your location on the main map for personalized predictions.

Altitude History

Loading altitude history...

Two-Line Element Set

1 45383U 20019Z 26146.33335648 .00534538 00000-0 52082-2 0 9996
2 45383 53.0439 119.4081 0001729 95.0446 256.6436 15.63999535 5945
Epoch: May 26, 2026 • Age: 10 hours

Current Status

Altitude 376.9 km
Velocity 7.69 km/s
Sub-Earth Point 36.59°N, 112.38°E
Launch Date Mar 18, 2020
Age 6.1 years
Type internet

Technical Details

Classification Payload
Mass 260.00 kg
Dry Mass 248.00 kg
Total Mass 260.00 kg
Length 0.20 m
Diameter 2.80 m
Span 9.00 m
Shape Box + pan
Manufacturer SPXS
Bus Type Starlink
Phase Status In Orbit
Owner/State SPXS/US

Most Searched